Time,TemperatureF,DewpointF,PressureIn,WindDirection,WindDirectionDegrees,WindSpeedMPH,WindSpeedGustMPH,Humidity,HourlyPrecipIn,Conditions,Clouds,dailyrainin,SoftwareType,DateUTC
2013-05-02 00:01:00,53.0,45.0,30.41,NE,38,6.0,17.0,75,0.00,,,0.00,,2013-05-02 07:01:00,
2013-05-02 00:11:00,53.0,45.0,30.41,NE,38,6.0,17.0,75,0.00,,,0.00,,2013-05-02 07:11:00,
2013-05-02 00:21:00,53.0,45.0,30.42,ENE,59,8.0,15.0,73,0.00,,,0.00,,2013-05-02 07:21:00,
2013-05-02 00:31:00,52.0,44.0,30.41,East,80,7.0,15.0,74,0.00,,,0.00,,2013-05-02 07:31:00,
2013-05-02 00:41:00,52.0,44.0,30.41,East,80,7.0,15.0,74,0.00,,,0.00,,2013-05-02 07:41:00,
2013-05-02 00:51:00,52.0,43.0,30.40,NE,42,5.0,13.0,72,0.00,,,0.00,,2013-05-02 07:51:00,
2013-05-02 01:02:00,53.0,42.0,30.41,ENE,59,6.0,10.0,67,0.00,,,0.00,,2013-05-02 08:02:00,
2013-05-02 01:11:00,53.0,42.0,30.41,ENE,59,6.0,10.0,67,0.00,,,0.00,,2013-05-02 08:11:00,
2013-05-02 01:32:00,53.0,42.0,30.40,East,86,5.0,11.0,66,0.00,,,0.00,,2013-05-02 08:32:00,
2013-05-02 01:42:00,53.0,42.0,30.40,East,86,5.0,11.0,66,0.00,,,0.00,,2013-05-02 08:42:00,
2013-05-02 01:52:00,53.0,42.0,30.40,East,96,4.0,10.0,67,0.00,,,0.00,,2013-05-02 08:52:00,
2013-05-02 02:02:00,53.0,41.0,30.40,East,98,4.0,11.0,64,0.00,,,0.00,,2013-05-02 09:02:00,
2013-05-02 02:21:00,52.0,40.0,30.40,East,96,6.0,13.0,64,0.00,,,0.00,,2013-05-02 09:21:00,
2013-05-02 02:32:00,53.0,41.0,30.40,ENE,64,4.0,14.0,63,0.00,,,0.00,,2013-05-02 09:32:00,
2013-05-02 02:52:00,53.0,40.0,30.40,ENE,76,6.0,14.0,62,0.00,,,0.00,,2013-05-02 09:52:00,
2013-05-02 03:02:00,53.0,41.0,30.40,ESE,114,8.0,14.0,63,0.00,,,0.00,,2013-05-02 10:02:00,
2013-05-02 03:22:00,51.0,40.0,30.40,East,94,10.0,16.0,67,0.00,,,0.00,,2013-05-02 10:22:00,
2013-05-02 03:32:00,51.0,40.0,30.40,NE,40,10.0,16.0,66,0.00,,,0.00,,2013-05-02 10:32:00,
2013-05-02 03:42:00,51.0,40.0,30.40,NE,40,10.0,16.0,66,0.00,,,0.00,,2013-05-02 10:42:00,
2013-05-02 03:52:00,52.0,40.0,30.40,East,80,8.0,16.0,63,0.00,,,0.00,,2013-05-02 10:52:00,
2013-05-02 04:02:00,52.0,41.0,30.39,NE,43,8.0,15.0,65,0.00,,,0.00,,2013-05-02 11:02:00,
2013-05-02 04:11:00,52.0,41.0,30.39,NE,43,8.0,15.0,65,0.00,,,0.00,,2013-05-02 11:11:00,
2013-05-02 04:21:00,51.0,40.0,30.39,East,92,8.0,16.0,65,0.00,,,0.00,,2013-05-02 11:21:00,
2013-05-02 04:32:00,52.0,40.0,30.39,ENE,70,10.0,17.0,64,0.00,,,0.00,,2013-05-02 11:32:00,
2013-05-02 04:41:00,52.0,40.0,30.39,ENE,70,10.0,17.0,64,0.00,,,0.00,,2013-05-02 11:41:00,
2013-05-02 04:52:00,52.0,40.0,30.40,NE,44,8.0,15.0,63,0.00,,,0.00,,2013-05-02 11:52:00,
2013-05-02 05:01:00,52.0,39.0,30.39,NNE,14,6.0,15.0,62,0.00,,,0.00,,2013-05-02 12:01:00,
2013-05-02 05:11:00,52.0,39.0,30.39,NNE,14,6.0,15.0,62,0.00,,,0.00,,2013-05-02 12:11:00,
2013-05-02 05:21:00,51.0,39.0,30.39,ENE,67,8.0,14.0,64,0.00,,,0.00,,2013-05-02 12:21:00,
2013-05-02 05:32:00,51.0,39.0,30.38,NE,44,6.0,14.0,63,0.00,,,0.00,,2013-05-02 12:32:00,
2013-05-02 05:42:00,51.0,39.0,30.38,NE,44,6.0,14.0,63,0.00,,,0.00,,2013-05-02 12:42:00,
2013-05-02 05:52:00,52.0,39.0,30.37,ENE,70,8.0,15.0,60,0.00,,,0.00,,2013-05-02 12:52:00,
2013-05-02 06:01:00,53.0,39.0,30.37,ENE,74,7.0,14.0,58,0.00,,,0.00,,2013-05-02 13:01:00,
2013-05-02 06:11:00,53.0,39.0,30.37,ENE,74,7.0,14.0,58,0.00,,,0.00,,2013-05-02 13:11:00,
2013-05-02 06:21:00,53.0,39.0,30.36,ENE,67,8.0,17.0,58,0.00,,,0.00,,2013-05-02 13:21:00,
2013-05-02 06:31:00,53.0,38.0,30.37,North,9,9.0,16.0,57,0.00,,,0.00,,2013-05-02 13:31:00,
2013-05-02 06:41:00,53.0,38.0,30.37,North,9,9.0,16.0,57,0.00,,,0.00,,2013-05-02 13:41:00,
2013-05-02 06:52:00,54.0,38.0,30.37,NE,49,6.0,16.0,55,0.00,,,0.00,,2013-05-02 13:52:00,
2013-05-02 07:02:00,53.0,38.0,30.37,ENE,63,6.0,14.0,56,0.00,,,0.00,,2013-05-02 14:02:00,
2013-05-02 07:11:00,53.0,38.0,30.37,ENE,63,6.0,14.0,56,0.00,,,0.00,,2013-05-02 14:11:00,
2013-05-02 07:21:00,53.0,39.0,30.36,ENE,72,7.0,19.0,58,0.00,,,0.00,,2013-05-02 14:21:00,
2013-05-02 07:31:00,51.0,39.0,30.36,NE,37,5.0,16.0,63,0.00,,,0.00,,2013-05-02 14:31:00,
2013-05-02 07:42:00,51.0,39.0,30.36,NE,37,5.0,16.0,63,0.00,,,0.00,,2013-05-02 14:42:00,
2013-05-02 07:52:00,52.0,39.0,30.37,NE,38,6.0,13.0,61,0.00,,,0.00,,2013-05-02 14:52:00,
2013-05-02 08:02:00,54.0,38.0,30.38,East,92,7.0,15.0,55,0.00,,,0.00,,2013-05-02 15:02:00,
2013-05-02 08:12:00,54.0,38.0,30.38,East,92,7.0,15.0,55,0.00,,,0.00,,2013-05-02 15:12:00,
2013-05-02 08:21:00,55.0,40.0,30.37,NNE,25,3.0,10.0,56,0.00,,,0.00,,2013-05-02 15:21:00,
2013-05-02 08:32:00,55.0,40.0,30.37,NE,39,3.0,11.0,56,0.00,,,0.00,,2013-05-02 15:32:00,
2013-05-02 08:43:00,55.0,40.0,30.37,NE,39,3.0,11.0,56,0.00,,,0.00,,2013-05-02 15:43:00,
2013-05-02 09:02:00,56.0,41.0,30.37,ENE,67,4.0,9.0,57,0.00,,,0.00,,2013-05-02 16:02:00,
2013-05-02 09:13:00,56.0,41.0,30.37,ENE,67,4.0,9.0,57,0.00,,,0.00,,2013-05-02 16:13:00,
2013-05-02 09:22:00,59.0,42.0,30.37,ENE,75,3.0,9.0,53,0.00,,,0.00,,2013-05-02 16:22:00,
2013-05-02 09:32:00,62.0,43.0,30.37,NE,46,1.0,5.0,50,0.00,,,0.00,,2013-05-02 16:32:00,
2013-05-02 09:43:00,62.0,43.0,30.37,NE,46,1.0,5.0,50,0.00,,,0.00,,2013-05-02 16:43:00,
2013-05-02 09:52:00,63.0,42.0,30.37,NNW,348,2.0,4.0,46,0.00,,,0.00,,2013-05-02 16:52:00,
2013-05-02 10:02:00,65.0,40.0,30.37,ENE,68,1.0,6.0,40,0.00,,,0.00,,2013-05-02 17:02:00,
2013-05-02 10:22:00,63.0,42.0,30.37,NNW,338,3.0,8.0,46,0.00,,,0.00,,2013-05-02 17:22:00,
2013-05-02 10:31:00,63.0,44.0,30.36,WNW,298,4.0,8.0,49,0.00,,,0.00,,2013-05-02 17:31:00,
2013-05-02 10:42:00,63.0,44.0,30.36,WNW,298,4.0,8.0,49,0.00,,,0.00,,2013-05-02 17:42:00,
2013-05-02 10:52:00,64.0,43.0,30.36,NNW,342,3.0,8.0,46,0.00,,,0.00,,2013-05-02 17:52:00,
2013-05-02 11:01:00,64.0,44.0,30.36,NW,323,4.0,9.0,49,0.00,,,0.00,,2013-05-02 18:01:00,
2013-05-02 11:11:00,64.0,44.0,30.36,NW,323,4.0,9.0,49,0.00,,,0.00,,2013-05-02 18:11:00,
2013-05-02 11:21:00,64.0,42.0,30.36,North,350,6.0,13.0,45,0.00,,,0.00,,2013-05-02 18:21:00,
2013-05-02 11:31:00,64.0,42.0,30.36,NW,317,4.0,10.0,45,0.00,,,0.00,,2013-05-02 18:31:00,
2013-05-02 11:41:00,64.0,42.0,30.36,NW,317,4.0,10.0,45,0.00,,,0.00,,2013-05-02 18:41:00,
2013-05-02 11:52:00,64.0,41.0,30.36,WNW,302,5.0,10.0,43,0.00,,,0.00,,2013-05-02 18:52:00,
2013-05-02 12:01:00,65.0,43.0,30.35,NW,310,4.0,8.0,44,0.00,,,0.00,,2013-05-02 19:01:00,
2013-05-02 12:11:00,65.0,43.0,30.35,NW,310,4.0,8.0,44,0.00,,,0.00,,2013-05-02 19:11:00,
2013-05-02 12:21:00,65.0,40.0,30.35,NNE,13,4.0,13.0,40,0.00,,,0.00,,2013-05-02 19:21:00,
2013-05-02 12:31:00,64.0,43.0,30.36,WNW,294,4.0,7.0,46,0.00,,,0.00,,2013-05-02 19:31:00,
2013-05-02 12:41:00,64.0,43.0,30.36,WNW,294,4.0,7.0,46,0.00,,,0.00,,2013-05-02 19:41:00,
2013-05-02 12:52:00,64.0,42.0,30.35,West,275,3.0,8.0,45,0.00,,,0.00,,2013-05-02 19:52:00,
2013-05-02 13:01:00,65.0,46.0,30.35,WNW,284,3.0,11.0,51,0.00,,,0.00,,2013-05-02 20:01:00,
2013-05-02 13:11:00,65.0,46.0,30.35,WNW,284,3.0,11.0,51,0.00,,,0.00,,2013-05-02 20:11:00,
2013-05-02 13:21:00,64.0,44.0,30.35,SW,221,5.0,8.0,49,0.00,,,0.00,,2013-05-02 20:21:00,
2013-05-02 13:32:00,64.0,47.0,30.34,WNW,286,1.0,7.0,54,0.00,,,0.00,,2013-05-02 20:32:00,
2013-05-02 13:41:00,64.0,47.0,30.34,WNW,286,1.0,7.0,54,0.00,,,0.00,,2013-05-02 20:41:00,
2013-05-02 13:52:00,64.0,48.0,30.33,WNW,302,5.0,10.0,57,0.00,,,0.00,,2013-05-02 20:52:00,
2013-05-02 14:01:00,61.0,47.0,30.34,West,271,5.0,10.0,61,0.00,,,0.00,,2013-05-02 21:01:00,
2013-05-02 14:11:00,61.0,47.0,30.34,West,271,5.0,10.0,61,0.00,,,0.00,,2013-05-02 21:11:00,
2013-05-02 14:21:00,62.0,48.0,30.34,NNW,329,3.0,10.0,60,0.00,,,0.00,,2013-05-02 21:21:00,
2013-05-02 14:33:00,62.0,48.0,30.35,West,281,3.0,9.0,60,0.00,,,0.00,,2013-05-02 21:33:00,
2013-05-02 14:42:00,62.0,48.0,30.35,West,281,3.0,9.0,60,0.00,,,0.00,,2013-05-02 21:42:00,
2013-05-02 14:53:00,62.0,49.0,30.34,West,281,4.0,9.0,62,0.00,,,0.00,,2013-05-02 21:53:00,
2013-05-02 15:02:00,65.0,49.0,30.34,West,266,4.0,7.0,56,0.00,,,0.00,,2013-05-02 22:02:00,
2013-05-02 15:12:00,65.0,49.0,30.34,West,266,4.0,7.0,56,0.00,,,0.00,,2013-05-02 22:12:00,
2013-05-02 15:22:00,59.0,49.0,30.35,WSW,256,3.0,10.0,70,0.00,,,0.00,,2013-05-02 22:22:00,
2013-05-02 15:32:00,59.0,49.0,30.35,SSW,211,5.0,14.0,70,0.00,,,0.00,,2013-05-02 22:32:00,
2013-05-02 15:42:00,59.0,49.0,30.35,SSW,211,5.0,14.0,70,0.00,,,0.00,,2013-05-02 22:42:00,
2013-05-02 15:52:00,59.0,49.0,30.35,SW,232,2.0,7.0,70,0.00,,,0.00,,2013-05-02 22:52:00,
2013-05-02 16:02:00,59.0,50.0,30.34,SSW,208,3.0,10.0,71,0.00,,,0.00,,2013-05-02 23:02:00,
2013-05-02 16:11:00,59.0,50.0,30.34,SSW,208,3.0,10.0,71,0.00,,,0.00,,2013-05-02 23:11:00,
2013-05-02 16:22:00,59.0,50.0,30.34,WNW,290,3.0,8.0,72,0.00,,,0.00,,2013-05-02 23:22:00,
2013-05-02 16:31:00,59.0,49.0,30.34,South,184,4.0,11.0,70,0.00,,,0.00,,2013-05-02 23:31:00,
2013-05-02 16:42:00,59.0,49.0,30.34,South,184,4.0,11.0,70,0.00,,,0.00,,2013-05-02 23:42:00,
2013-05-02 16:52:00,59.0,50.0,30.34,SSW,209,3.0,9.0,71,0.00,,,0.00,,2013-05-02 23:52:00,
2013-05-02 17:01:00,58.0,48.0,30.34,NNE,28,4.0,12.0,70,0.00,,,0.00,,2013-05-03 00:01:00,
2013-05-02 17:11:00,58.0,48.0,30.34,NNE,28,4.0,12.0,70,0.00,,,0.00,,2013-05-03 00:11:00,
2013-05-02 17:21:00,58.0,50.0,30.34,West,273,4.0,10.0,74,0.00,,,0.00,,2013-05-03 00:21:00,
2013-05-02 17:31:00,56.0,47.0,30.34,SW,222,4.0,9.0,73,0.00,,,0.00,,2013-05-03 00:31:00,
2013-05-02 17:41:00,56.0,47.0,30.34,SW,222,4.0,9.0,73,0.00,,,0.00,,2013-05-03 00:41:00,
2013-05-02 17:52:00,56.0,48.0,30.34,SSW,208,2.0,7.0,74,0.00,,,0.00,,2013-05-03 00:52:00,
2013-05-02 18:01:00,55.0,46.0,30.33,SW,231,3.0,13.0,72,0.00,,,0.00,,2013-05-03 01:01:00,
2013-05-02 18:11:00,55.0,46.0,30.33,SW,231,3.0,13.0,72,0.00,,,0.00,,2013-05-03 01:11:00,
2013-05-02 18:21:00,56.0,47.0,30.33,SSE,163,4.0,11.0,71,0.00,,,0.00,,2013-05-03 01:21:00,
2013-05-02 18:31:00,56.0,47.0,30.32,SE,142,2.0,7.0,71,0.00,,,0.00,,2013-05-03 01:31:00,
2013-05-02 18:41:00,56.0,47.0,30.32,SE,142,2.0,7.0,71,0.00,,,0.00,,2013-05-03 01:41:00,
2013-05-02 18:52:00,55.0,47.0,30.32,SW,232,3.0,9.0,73,0.00,,,0.00,,2013-05-03 01:52:00,
2013-05-02 19:01:00,56.0,47.0,30.30,WNW,296,3.0,6.0,72,0.00,,,0.00,,2013-05-03 02:01:00,
2013-05-02 19:11:00,56.0,47.0,30.30,WNW,296,3.0,6.0,72,0.00,,,0.00,,2013-05-03 02:11:00,
2013-05-02 19:21:00,54.0,46.0,30.31,NNW,329,4.0,9.0,73,0.00,,,0.00,,2013-05-03 02:21:00,
2013-05-02 19:31:00,54.0,46.0,30.31,WSW,251,2.0,5.0,74,0.00,,,0.00,,2013-05-03 02:31:00,
2013-05-02 19:41:00,54.0,46.0,30.31,WSW,251,2.0,5.0,74,0.00,,,0.00,,2013-05-03 02:41:00,
2013-05-02 19:52:00,53.0,45.0,30.31,WNW,298,2.0,8.0,75,0.00,,,0.00,,2013-05-03 02:52:00,
2013-05-02 20:01:00,52.0,45.0,30.32,SW,227,3.0,7.0,77,0.00,,,0.00,,2013-05-03 03:01:00,
2013-05-02 20:11:00,52.0,45.0,30.32,SW,227,3.0,7.0,77,0.00,,,0.00,,2013-05-03 03:11:00,
2013-05-02 20:21:00,52.0,45.0,30.33,South,189,4.0,7.0,78,0.00,,,0.00,,2013-05-03 03:21:00,
2013-05-02 20:32:00,52.0,46.0,30.33,SSW,194,3.0,7.0,79,0.00,,,0.00,,2013-05-03 03:32:00,
2013-05-02 20:42:00,52.0,46.0,30.33,SSW,194,3.0,7.0,79,0.00,,,0.00,,2013-05-03 03:42:00,
2013-05-02 20:53:00,51.0,45.0,30.33,SSW,206,2.0,10.0,79,0.00,,,0.00,,2013-05-03 03:53:00,
2013-05-02 21:02:00,52.0,46.0,30.33,South,180,4.0,11.0,79,0.00,,,0.00,,2013-05-03 04:02:00,
2013-05-02 21:12:00,52.0,46.0,30.33,South,180,4.0,11.0,79,0.00,,,0.00,,2013-05-03 04:12:00,
2013-05-02 21:22:00,51.0,45.0,30.33,South,187,3.0,7.0,79,0.00,,,0.00,,2013-05-03 04:22:00,
2013-05-02 21:32:00,51.0,45.0,30.33,South,174,1.0,5.0,79,0.00,,,0.00,,2013-05-03 04:32:00,
2013-05-02 21:42:00,51.0,45.0,30.33,South,174,1.0,5.0,79,0.00,,,0.00,,2013-05-03 04:42:00,
2013-05-02 21:53:00,51.0,45.0,30.34,SE,138,2.0,5.0,80,0.00,,,0.00,,2013-05-03 04:53:00,
2013-05-02 22:02:00,50.0,45.0,30.34,WSW,244,1.0,7.0,82,0.00,,,0.00,,2013-05-03 05:02:00,
2013-05-02 22:11:00,50.0,45.0,30.34,WSW,244,1.0,7.0,82,0.00,,,0.00,,2013-05-03 05:11:00,
2013-05-02 22:21:00,50.0,45.0,30.33,SSW,203,0.0,5.0,83,0.00,,,0.00,,2013-05-03 05:21:00,
2013-05-02 22:32:00,49.0,44.0,30.33,ESE,122,0.0,2.0,84,0.00,,,0.00,,2013-05-03 05:32:00,
2013-05-02 22:42:00,49.0,44.0,30.33,ESE,122,0.0,2.0,84,0.00,,,0.00,,2013-05-03 05:42:00,
2013-05-02 22:52:00,49.0,45.0,30.32,East,93,0.0,2.0,85,0.00,,,0.00,,2013-05-03 05:52:00,
2013-05-02 23:01:00,49.0,45.0,30.32,ESE,109,0.0,3.0,85,0.00,,,0.00,,2013-05-03 06:01:00,
2013-05-02 23:11:00,49.0,45.0,30.32,ESE,109,0.0,3.0,85,0.00,,,0.00,,2013-05-03 06:11:00,
2013-05-02 23:21:00,48.0,44.0,30.32,ENE,78,0.0,3.0,85,0.00,,,0.00,,2013-05-03 06:21:00,
2013-05-02 23:31:00,48.0,44.0,30.32,West,267,1.0,4.0,86,0.00,,,0.00,,2013-05-03 06:31:00,
2013-05-02 23:42:00,48.0,44.0,30.32,West,267,1.0,4.0,86,0.00,,,0.00,,2013-05-03 06:42:00,
2013-05-02 23:52:00,49.0,45.0,30.33,East,84,0.0,5.0,86,0.00,,,0.00,,2013-05-03 06:52:00,